Preview of NWS' New Version of Forecast
This preview is not operational and should not be used for support decisions.

Regional Weather Roundup (RWR)

Issued by Gray - Portland, ME (GYX)

                            
931 
ASUS41 KGYX 210406
RWRGYX
WEATHER ROUNDUP FOR MAINE AND NEW HAMPSHIRE
NATIONAL WEATHER SERVICE GRAY ME
1100 PM EST TUE FEB 20 2018

MEZ002-005-006-010-012-015-018-020-021-024-026-027-029-210500-
MAINE
  
CITY           SKY/WX    TMP DP  RH WIND       PRES   REMARKS
PORTLAND       CLOUDY    39  39 100 W3        30.28S FOG              
SANFORD        FOG       37  37 100 CALM      30.28S VSB 1/4          
BAR HARBOR     FOG       38  38 100 E6        30.28S VSB 1/2          
WISCASSET      FOG       36  36 100 CALM      30.28S VSB 1/2          
ROCKLAND       FOG       39  39 100 NE7       30.27S VSB 1/2          
FRYEBURG       CLOUDY    38  38 100 CALM      30.27S                  
LEWISTONAUBURN FOG       36  36 100 CALM      30.27F VSB 1/4          
AUGUSTA        FOG       37  36  96 N3        30.26F VSB 1/4          
WATERVILLE     LGT RAIN  37  37 100 CALM      30.22S VSB 3/4          
BANGOR         DRIZZLE   36  36 100 CALM      30.27F FOG              
GREENVILLE       N/A     34  34 100 SE8       30.18F                  
MILLINOCKET    LGT RAIN  35  35 100 E3        30.27S FOG              
HOULTON        CLOUDY    31  30  96 SE10      30.26F                  
PRESQUE ISLE   MIX PCPN  30  28  92 SE14G21   30.26F WCI  19          
FRENCHVILLE    FRZ RAIN  28  27  96 SE15      30.20F FOG     WCI  16  
CARIBOU        CLOUDY    31  27  85 SE13      30.24F                  
$$

NHZ002-005-008-009-011-012-014-210500-
NEW HAMPSHIRE
  
CITY           SKY/WX    TMP DP  RH WIND       PRES   REMARKS
PORTSMOUTH     FOG       40  40  99 CALM      30.26F VSB 1/8          
ROCHESTER      FOG       39  39 100 VRB3      30.25F VSB 1/4          
NASHUA         FAIR      42  42 100 CALM      30.27S FOG              
MANCHESTER     MOCLDY    42  42 100 CALM      30.26S FOG              
CONCORD        FOG       42  40  92 CALM      30.26R VSB 1/2          
LACONIA        CLOUDY    36  34  92 CALM      30.26S                  
PLYMOUTH       CLOUDY    36  33  91 CALM      30.26S                  
BERLIN         CLOUDY    37  36  96 CALM      30.20R FOG              
WHITEFIELD     CLOUDY    37  36  96 CALM      30.19S FOG              
JAFFREY        FAIR      39  32  76 CALM      30.26S                  
KEENE          MOCLDY    36  34  93 CALM      30.27S FOG              
LEBANON        MOCLDY    39  37  92 NE6       30.21S                  
MT WASHINGTON  NOT AVBL                                               
$$

VTZ005-007-008-210500-
VERMONT
  
CITY           SKY/WX    TMP DP  RH WIND       PRES   REMARKS
ST JOHNSBURY     N/A     38  38 100 MISG      30.17S                  
MONTPELIER     CLOUDY    53  50  89 S10       30.21R                  
BURLINGTON     CLOUDY    58  49  72 S15       30.14R                  
$$

MAZ007-012-024-CTZ003-RIZ002-NYZ038-NYZ072-210500-
SOUTHERN NEW ENGLAND AND NY
  
CITY           SKY/WX    TMP DP  RH WIND       PRES   REMARKS
BOSTON         FAIR      44  42  93 NE3       30.27S                  
WORCESTER      FAIR      59  32  36 SW18      30.28R                  
NANTUCKET      FOG       45  45 100 SW15      30.36S VSB 1/4          
PROVIDENCE     FAIR      50  49  96 SW6       30.31S                  
HARTFORD       FAIR      54  51  90 S10       30.28S                  
ALBANY         MOCLDY    57  49  74 S9        30.22S                  
NEW YORK CITY  FAIR      54  48  80 S7        30.32S                  
$$

ANZ081-ANZ082-ANZ150-NHZ014-MEZ023>029-210500-
COASTAL MARINE OBSERVATIONS
  
STATION/POSITION TIME  TEMP    WIND        PRES    WAVE
                       AIR SEA DIR/SP/G            HT/PER
                 (UTC) (F)     (DEG/KT/KT) (MB)    (FT/S)
JEFFREYS LEDGE   0336      42                N/A     4/13
GEORGES BANK BUO 0250   51 62              1025.3   11/ 8
$$

.............KEY..............
   WCI - WIND CHILL
   TC  - TEMPERATURE IN CELSIUS
   VSB - VISIBILITY IN MILES
   HX  - HEAT INDEX
   FAIR- INDICATES FEW OR NO CLOUDS BELOW 12,000 FT, WITH NO 
         SIGNIFICANT WEATHER AND/OR OBSTRUCTIONS TO VISIBILITY.